Regional Weather Roundup
Issued by NWS

Home | Current Version | Previous Version | Graphics & Text | Print | Product List | Glossary On
Versions: 1 2 3 4 5 6 7 8 9 10 11 12 13 14 15 16 17 18 19 20 21 22 23 24 25 26 27 28 29 30 31 32 33 34 35 36 37 38 39 40 41 42 43 44 45 46 47 48 49 50
000
ASUS44 KMEG 202010
RWRTN
TENNESSEE HOURLY STATE WEATHER ROUNDUP
NATIONAL WEATHER SERVICE MEMPHIS TN
300 PM CDT FRI APR 20 2018

TNZ002-004-019-021-049-052-054-088>092-202100-
WEST TENNESSEE

CITY           SKY/WX    TMP DP  RH WIND       PRES   REMARKS
MEMPHIS INTL   FAIR      69  29  22 E12       30.30F
NWS MEMPHIS      N/A     67 N/A N/A MISG        N/A
JACKSON        FAIR      68  27  21 E12       30.33F
DYERSBURG      FAIR      66  33  29 N8        30.36F
SOMERVILLE     SUNNY     68  28  22 VRB7G14   30.29F
COVINGTON      SUNNY     66  34  30 NE7G15    30.33F
UNION CITY     SUNNY     64  25  22 NE12      30.36S
BOLIVAR        SUNNY     68  30  24 E13       30.31F
PARIS          SUNNY     64  25  22 NE10      30.36F
HUNTINGDON     SUNNY     66  28  24 VRB6G16   30.34F
LEXINGTON      SUNNY     68  23  18 CALM      30.32F
SELMER         SUNNY     66  25  20 E8G15     30.30F
SAVANNAH       SUNNY     68  27  21 VRB6G15   30.30F
$$

TNZ008-025-027-028-033-062-065-066-202100-
NORTH MIDDLE TENNESSEE

CITY           SKY/WX    TMP DP  RH WIND       PRES   REMARKS
NASHVILLE      FAIR      67  32  27 N10       30.36F
PORTLAND       SUNNY     63  28  27 NE8G14    30.36F
CLARKSVILLE    FAIR      63  32  31 E15       30.37F
SMYRNA         FAIR      66  30  26 N8        30.36F
COOKEVILLE     SUNNY     64  28  25 VRB3G12   30.33F
LIVINGSTON     CLEAR     61  27  27 N9        30.34F
GALLATIN       SUNNY     64  27  24 NE7G15    30.39F
CROSSVILLE     FAIR      64  23  21 N6        30.34F
ROCKWOOD       CLEAR     64  25  22 VRB7      30.32F
$$

TNZ061-075-076-078-094-096-097-202100-
SOUTH MIDDLE TENNESSEE

CITY           SKY/WX    TMP DP  RH WIND       PRES   REMARKS
LEWISBURG      CLEAR     66  28  24 NE10      30.33F
FAYETTEVILLE   SUNNY     66  30  26 VRB5G17   30.30F
TULLAHOMA      SUNNY     66  32  28 E8        30.31F
WINCHESTER     SUNNY     68  30  24 N9        30.29F
MCMINNVILLE    SUNNY     66  28  24 N9        30.32F
COLUMBIA       SUNNY     66  32  28 NE12      30.32F
SHELBYVILLE    SUNNY     66  34  30 NE6       30.33F
$$

TNZ017-018-042-046-047-202100-
NORTHEAST TENNESSEE

CITY           SKY/WX    TMP DP  RH WIND       PRES   REMARKS
TRI CITIES     FAIR      62  23  22 CALM      30.33F
ELIZABETHTON   FAIR      63  27  25 VRB7G14   30.32F
$$

TNZ012-013-036-069-073-074-202100-
CENTRAL EAST TENNESSEE

CITY           SKY/WX    TMP DP  RH WIND       PRES   REMARKS
KNOXVILLE      FAIR      65  30  27 NE14      30.31F
OAK RIDGE      FAIR      65  28  24 VRB7      30.34F
DOWNTOWN KNOXV SUNNY     64  30  27 VRB5      30.33F
GATLINBURG     SUNNY     63  27  25 NE13      30.32F
MORRISTOWN     SUNNY     61  28  29 VRB3      30.33F
JACKSBORO      SUNNY     64  32  29 SW8       30.37F
$$

TNZ083-085-099-202100-
SOUTHEAST TENNESSEE

CITY           SKY/WX    TMP DP  RH WIND       PRES   REMARKS
CHATTANOOGA    FAIR      67  31  26 N5        30.31F
DAYTON         CLEAR     66  34  30 N9        30.31F
$$

SKY/WX REPORTED AS FAIR MEANS FEW OR NO CLOUDS BELOW
12 THOUSAND FEET.





USA.gov is the U.S. government's official web portal to all federal, state and local government web resources and services.